Location: Bauerbach
(50.4985°N, 10.3912°E)
Time: 18:55:24
(UTC+00:00)

Meteor 2-13 Rocket - Pass Details

Date: 13 January 2026
Orbit: 935 x 958 km, 82.5° (Epoch: 18 February)

Event Time Altitude Azimuth Distance (km) Brightness Sun altitude
Rises 05:08:09 0° 347° (NNW) 3,643 7.3 -19.3°
Reaches altitude 10° 05:10:40 10° 345° (NNW) 2,691 6.6 -18.9°
Maximum altitude 05:16:44 64° 265° (W) 1,045 4.4 -18.0°
Drops below altitude 10° 05:22:44 10° 186° (S) 2,656 6.9 -17.1°
Sets 05:25:13 0° 183° (S) 3,593 7.6 -16.7°
